KD8UYA Weather Reports


Display with metric or nautical units.
time (UTC)temp
F
wind
direction
speed
MPH
gust
MPH
rain 1hr
in
rain 24hr
in
rain mn
in
humidity
%
barometer
mb
20260510153045 54 265 2.0 8.0 0.00 0.51 0.00 55 1015.3
20260510151543 54 84 2.0 6.0 0.00 0.51 0.00 56 1015.0
20260510150042 53 69 2.0 9.0 0.00 0.51 0.00 57 1014.8
20260510144547 53 38 5.0 13.0 0.00 0.51 0.00 56 1014.8
20260510143042 52 49 3.0 14.0 0.00 0.51 0.00 56 1014.7
20260510141539 52 53 3.0 10.0 0.00 0.51 0.00 63 1014.6
20260510140038 51 120 2.0 9.0 0.00 0.51 0.00 67 1014.6
20260510134539 50 71 3.0 8.0 0.00 0.51 0.00 68 1014.5
20260510133034 50 9 3.0 6.0 0.00 0.51 0.00 71 1014.2
20260510131535 48 42 3.0 9.0 0.00 0.51 0.00 73 1014.0
20260510130027 48 27 2.0 13.0 0.00 0.51 0.00 78 1013.6
20260510124523 48 336 2.0 5.0 0.00 0.51 0.00 82 1013.4
20260510123027 47 54 2.0 9.0 0.00 0.51 0.00 83 1013.1
20260510121522 47 37 2.0 8.0 0.00 0.51 0.00 86 1012.8
20260510120020 47 40 3.0 9.0 0.00 0.51 0.00 87 1012.7
20260510114513 47 24 2.0 6.0 0.00 0.51 0.00 88 1012.4
20260510113018 47 28 3.0 8.0 0.00 0.51 0.00 86 1012.0
20260510111508 47 69 2.0 8.0 0.00 0.51 0.00 87 1011.7
20260510110016 47 12 3.0 6.0 0.00 0.51 0.00 88 1011.2
20260510104502 47 56 1.0 6.0 0.00 0.51 0.00 90 1010.9
20260510103100 47 42 1.0 3.0 0.00 0.51 0.00 90 1010.5
20260510101601 47 23 2.0 5.0 0.00 0.51 0.00 90 1010.2
20260510100056 48 51 3.0 6.0 0.00 0.51 0.00 88 1010.0
20260510094608 48 45 0.0 3.0 0.00 0.51 0.00 85 1010.1
20260510093117 48 44 1.0 6.0 0.00 0.51 0.00 84 1009.9
20260510091551 48 30 2.0 4.0 0.00 0.51 0.00 84 1009.5
20260510090049 47 61 0.0 4.0 0.00 0.51 0.00 86 1009.3
20260510084546 47 69 0.0 1.0 0.00 0.51 0.00 88 1008.9
20260510083044 48 69 0.0 0.0 0.00 0.51 0.00 85 1008.9
20260510081542 48 69 0.0 2.0 0.00 0.51 0.00 84 1008.8
20260510080039 49 78 0.0 3.0 0.00 0.51 0.00 83 1008.7
20260510074537 49 31 0.0 10.0 0.00 0.51 0.00 83 1008.2
20260510073042 49 80 3.0 8.0 0.00 0.51 0.00 83 1008.0
20260510071532 49 38 0.0 5.0 0.00 0.51 0.00 86 1007.9
20260510070032 50 36 2.0 6.0 0.00 0.51 0.00 89 1007.6
20260510064526 50 49 3.0 9.0 0.00 0.56 0.00 93 1007.3
20260510063024 51 72 3.0 11.0 0.00 0.56 0.00 93 1007.2
20260510061519 53 325 3.0 9.0 0.00 0.56 0.00 96 1007.2
20260510060017 53 208 0.0 0.0 0.00 0.68 0.00 96 1006.9
20260510054516 54 208 0.0 2.0 0.00 0.68 0.00 97 1006.7
20260510053039 54 207 0.0 0.0 0.00 0.68 0.00 96 1006.8
20260510051513 53 207 0.0 2.0 0.00 0.68 0.00 96 1006.5
20260510050013 53 205 0.0 3.0 0.00 0.74 0.00 96 1006.0
20260510044506 54 170 0.0 4.0 0.00 0.74 0.00 96 1005.6
20260510043006 53 182 0.0 3.0 0.07 0.74 0.00 96 1005.4
20260510041507 54 248 0.0 1.0 0.09 0.74 0.00 96 1005.5
20260510040001 54 259 0.0 2.0 0.11 0.78 0.74 95 1005.4
20260510034501 54 259 0.0 4.0 0.11 0.78 0.74 95 1005.2
20260510033001 55 269 1.0 3.0 0.03 0.70 0.66 95 1005.8
20260510031600 55 247 2.0 10.0 0.06 0.69 0.65 95 1005.9
20260510030104 54 261 2.0 7.0 0.07 0.67 0.63 95 1005.5
20260510024607 54 238 1.0 4.0 0.07 0.68 0.63 95 1005.5
20260510023058 55 261 1.0 13.0 0.07 0.68 0.63 94 1005.2
20260510021559 55 298 6.0 16.0 0.03 0.64 0.59 96 1006.2
20260510020059 54 241 0.0 0.0 0.00 0.61 0.56 96 1004.8
20260510014558 54 241 0.0 0.0 0.00 0.62 0.56 96 1004.8
20260510013057 54 241 0.0 0.0 0.00 0.62 0.56 95 1004.6
20260510011556 54 241 0.0 2.0 0.00 0.62 0.56 95 1004.5
20260510010055 54 246 1.0 4.0 0.01 0.62 0.56 95 1004.4
20260510004559 54 247 0.0 4.0 0.01 0.67 0.56 94 1004.1
20260510003056 55 256 0.0 8.0 0.03 0.67 0.56 94 1004.3
20260510001553 55 270 2.0 8.0 0.07 0.67 0.56 94 1004.2
20260510000058 55 261 2.0 7.0 0.27 0.66 0.55 94 1004.2
20260509234551 55 263 4.0 14.0 0.32 0.74 0.55 93 1004.4
20260509233051 55 254 3.0 14.0 0.30 0.72 0.53 92 1004.7
20260509231550 56 263 5.0 19.0 0.25 0.67 0.48 90 1004.3
20260509230054 63 232 10.0 17.0 0.04 0.46 0.27 74 1004.4
20260509224549 67 255 7.0 17.0 0.00 0.51 0.23 60 1002.0
20260509223047 68 261 6.0 21.0 0.00 0.51 0.23 59 1001.7
20260509221546 68 252 6.0 14.0 0.00 0.51 0.23 59 1002.0
20260509220045 68 303 5.0 16.0 0.00 0.51 0.23 60 1002.0
20260509214559 68 210 6.0 16.0 0.00 0.56 0.23 59 1001.9
20260509213045 69 237 6.0 17.0 0.00 0.56 0.23 59 1001.8
20260509211542 69 265 7.0 19.0 0.00 0.56 0.23 61 1001.8
20260509210043 68 214 8.0 16.0 0.00 0.56 0.23 62 1002.2
20260509204542 68 298 5.0 15.0 0.00 0.61 0.23 64 1002.6
20260509203035 68 130 5.0 15.0 0.00 0.61 0.23 64 1002.6
20260509201533 68 291 6.0 15.0 0.00 0.61 0.23 65 1002.8
20260509200030 68 273 4.0 17.0 0.00 0.61 0.23 67 1003.1
20260509194530 67 267 6.0 15.0 0.00 0.61 0.23 64 1003.2
20260509193029 67 222 7.0 18.0 0.00 0.61 0.23 64 1003.6
20260509191537 66 253 6.0 16.0 0.00 0.61 0.23 66 1003.9
20260509190028 66 263 4.0 12.0 0.00 0.61 0.23 69 1004.1
20260509184531 65 257 6.0 14.0 0.00 0.61 0.23 67 1004.1
20260509183020 65 215 7.0 14.0 0.00 0.61 0.23 68 1004.3
20260509181518 64 262 8.0 17.0 0.00 0.61 0.23 67 1004.2
20260509180016 64 230 6.0 12.0 0.00 0.61 0.23 69 1004.0
20260509174520 64 285 3.0 16.0 0.00 0.61 0.23 71 1004.4
20260509173008 63 271 6.0 16.0 0.00 0.61 0.23 72 1004.4
20260509171507 63 244 4.0 14.0 0.00 0.61 0.23 72 1004.4
20260509170006 62 230 3.0 12.0 0.00 0.61 0.23 74 1004.3
20260509164501 61 216 4.0 11.0 0.00 0.61 0.23 74 1004.2
20260509163101 61 273 4.0 10.0 0.00 0.61 0.23 78 1004.5
20260509161555 59 196 3.0 9.0 0.00 0.61 0.23 78 1004.9
20260509160054 60 232 2.0 10.0 0.00 0.61 0.23 79 1004.9
20260509154552 59 289 4.0 10.0 0.00 0.61 0.23 82 1005.0